GFSGL_sfc_temp_117.txt.gz
Temp
78 77 76 76 77 77 76 76 74 73 72 72 74 74 77 78 78 77 76 77 76 75 76 76 77 77 75 75 75 74 74 76 70 73 75 77 79 80 84 83 84 82 82
77 78 76 76 77 76 76 77 74 71 71 75 75 76 77 77 77 76 77 77 76 75 76 76 76 81 76 75 74 74 74 74 72 70 73 75 76 79 79 81 84 88 82
75 76 74 75 76 76 77 77 76 76 75 76 76 76 77 77 77 76 76 76 77 76 75 76 79 79 77 73 74 71 73 73 72 71 71 73 75 78 76 77 78 79 86
71 72 72 73 74 73 75 76 77 76 76 76 76 76 76 74 73 74 75 76 75 75 75 77 75 76 77 74 73 73 73 72 71 70 70 72 71 75 74 73 75 78 78
71 71 70 72 73 72 73 73 73 75 75 76 75 73 70 67 66 68 73 74 72 71 71 74 71 72 71 70 73 71 72 71 71 70 69 69 70 71 71 72 71 73 77
70 69 72 71 71 70 70 71 73 72 73 73 70 68 65 64 64 64 67 71 72 71 70 71 69 68 68 69 70 70 69 71 70 69 69 69 69 70 71 71 70 70 69
70 71 70 68 67 67 69 69 70 71 71 69 66 63 58 58 60 61 66 70 71 68 70 70 67 66 64 65 68 71 70 69 68 69 69 69 69 70 70 68 69 69 69
70 68 68 68 67 67 67 68 70 69 68 65 64 60 59 60 59 60 65 70 65 66 66 64 61 60 61 62 68 69 69 70 66 70 67 68 69 70 68 69 70 70 71
68 67 67 67 66 66 67 67 65 63 62 62 62 62 60 60 58 60 67 67 64 61 63 64 63 61 60 61 65 64 64 65 69 67 67 66 66 66 67 70 66 64 64
65 66 68 68 67 66 65 66 65 62 60 59 60 61 59 60 57 58 62 68 62 62 62 61 61 59 57 57 61 61 60 61 62 67 72 72 70 70 68 66 65 63 62
63 65 66 67 66 66 66 68 65 61 60 59 59 60 60 60 59 57 58 59 62 64 64 62 62 57 55 55 56 60 59 59 63 65 67 68 68 69 70 70 69 67 63
62 62 64 66 68 66 65 64 65 61 58 57 57 59 60 61 58 56 56 58 61 62 61 62 61 55 55 57 62 59 61 64 66 65 64 64 64 65 65 65 63 64 64
61 61 61 57 58 63 64 64 63 63 63 62 62 59 59 58 57 55 56 57 58 57 58 59 58 56 58 61 59 59 60 61 60 59 58 58 60 62 63 64 64 64 62
59 59 56 53 54 52 57 56 56 55 59 62 60 60 58 52 51 50 51 51 54 54 53 55 61 60 59 59 61 59 59 58 56 55 53 55 58 60 58 60 59 60 55
59 58 57 54 49 47 47 46 49 47 46 57 54 52 54 50 46 44 43 44 44 46 48 54 55 54 55 56 56 56 54 55 54 50 50 50 51 54 54 55 56 54 53
58 58 58 55 54 51 47 45 47 46 46 45 46 50 46 46 45 44 43 43 44 46 51 53 52 52 51 51 51 52 53 53 52 52 52 52 51 51 52 51 52 48 48
59 58 59 58 58 55 54 53 50 50 46 44 44 44 45 45 45 43 42 43 48 51 53 53 51 51 50 49 49 49 48 49 52 52 52 52 53 52 50 50 50 49 48
55 58 56 57 60 58 57 56 53 52 51 49 46 47 45 45 45 44 43 48 52 52 51 50 49 49 49 48 48 47 48 48 47 47 46 47 47 47 46 46 47 46 46
57 60 59 55 58 60 58 57 53 54 52 49 46 46 46 45 44 44 43 49 51 50 49 49 49 48 48 48 47 47 47 47 46 45 45 44 45 44 43 43 44 45 45
55 61 60 56 56 56 56 58 55 55 52 47 48 51 50 49 51 52 52 51 52 50 49 48 48 48 48 47 46 46 46 45 44 43 43 42 42 41 41 42 42 41 42
54 54 60 55 54 56 57 56 55 57 54 53 52 52 50 51 50 51 54 54 52 50 49 49 48 47 47 46 46 45 44 44 43 42 41 40 40 39 39 39 40 40 40
55 54 54 55 56 55 54 55 56 57 56 53 52 48 48 53 54 54 54 53 53 52 50 49 48 48 48 46 45 45 44 42 41 41 39 39 38 38 38 38 38 40 42
55 55 54 54 55 56 55 56 55 55 55 52 52 52 51 52 53 54 54 54 53 52 52 51 50 48 48 48 47 46 44 42 41 41 39 38 37 36 36 39 41 41 41
55 55 54 54 53 53 53 54 55 53 55 55 53 52 52 52 53 54 54 54 53 53 52 51 51 50 49 49 48 46 45 44 43 42 40 38 36 37 38 41 42 42 41
54 55 54 52 53 53 53 53 53 54 55 55 54 53 52 52 53 53 52 53 53 53 53 52 52 53 52 51 49 45 39 41 42 39 40 39 37 37 37 37 41 42 42
58 56 55 55 54 55 53 53 54 53 53 55 54 53 54 53 53 53 52 52 51 52 52 51 52 53 52 52 50 43 35 36 39 36 39 36 35 35 36 37 41 42 41

GFSGL_sfc_temp_120.txt.gz
Temp
74 73 73 73 74 74 73 72 72 72 71 72 72 73 75 75 73 74 73 74 74 74 74 74 74 74 73 73 73 72 71 71 67 70 71 74 75 76 77 80 80 80 80
76 73 73 73 73 74 74 74 73 72 71 72 71 73 73 75 74 74 74 76 74 74 74 73 75 79 74 73 72 71 71 71 69 68 69 72 73 76 75 76 80 83 78
73 74 72 72 72 72 73 74 73 72 70 71 73 74 74 75 74 74 74 75 75 74 74 73 75 76 75 71 71 70 71 71 70 69 69 70 72 73 73 73 74 73 81
71 71 72 71 72 72 72 73 73 72 72 73 73 73 72 73 72 73 74 74 74 73 72 72 71 72 72 72 72 70 71 70 70 68 68 69 69 72 71 70 71 73 72
69 69 70 71 71 71 71 70 72 73 73 74 71 69 68 68 67 68 70 72 71 70 71 70 68 69 69 68 71 70 70 69 69 68 68 68 68 68 68 70 68 69 71
68 69 70 71 70 70 70 71 71 71 70 70 66 65 63 65 63 64 67 69 70 70 69 68 66 67 68 68 67 68 67 68 68 67 67 67 67 67 68 68 67 67 66
69 70 70 69 68 68 69 69 69 69 68 64 61 60 58 59 61 61 65 69 69 67 68 64 66 66 66 68 68 67 67 65 66 67 65 65 64 66 66 66 66 66 67
69 69 68 67 66 66 68 68 69 68 65 62 59 59 58 60 59 60 65 67 66 64 63 61 60 61 62 66 67 66 65 66 64 66 63 64 66 66 66 67 67 66 67
67 67 67 67 67 67 64 63 61 63 61 59 57 55 54 56 57 61 64 63 61 60 61 62 62 60 60 62 63 62 62 63 67 64 64 63 64 64 65 68 62 60 59
66 66 67 66 66 65 65 64 61 59 56 55 54 56 58 58 56 59 62 60 59 63 62 60 60 60 57 57 61 60 60 58 61 65 66 66 66 66 65 64 61 58 56
65 66 66 66 67 65 66 62 60 59 59 57 56 55 55 57 57 58 59 62 61 64 63 63 60 56 55 56 58 59 59 58 61 62 62 63 63 63 63 62 59 57 55
64 64 64 65 67 66 64 61 60 59 57 55 55 55 57 59 55 55 56 59 62 62 62 62 60 55 54 56 58 56 57 61 61 59 57 56 57 58 58 58 59 57 58
60 57 57 57 59 62 64 63 62 61 59 58 60 59 57 55 56 54 53 55 57 57 59 59 55 54 55 57 56 57 58 57 58 54 51 50 50 52 54 54 56 55 54
56 54 53 54 51 53 56 57 57 58 62 62 60 55 54 53 50 54 54 52 53 53 56 57 57 57 56 57 56 55 56 54 52 49 48 48 50 54 54 53 51 52 48
57 54 52 52 50 50 47 46 50 47 49 55 55 59 55 50 46 45 46 47 47 48 53 55 55 53 52 51 52 50 50 50 52 52 51 51 51 51 49 49 50 47 45
57 56 53 51 50 47 45 45 46 46 45 45 46 50 48 46 45 43 42 43 45 47 52 52 49 49 49 48 47 47 48 50 47 49 47 47 46 47 47 48 48 46 44
54 54 55 55 53 51 50 50 44 49 46 44 43 45 46 45 43 42 43 45 47 51 52 48 49 47 46 47 46 47 45 45 47 46 46 45 46 45 44 44 44 44 43
52 55 54 53 52 52 53 53 52 49 47 47 47 46 44 44 44 44 45 48 53 51 50 50 49 46 46 45 46 45 45 45 45 43 43 43 43 43 42 41 41 40 41
51 51 51 53 55 53 49 48 48 48 47 49 48 48 47 44 45 45 45 50 49 46 46 46 45 45 44 45 44 44 43 42 41 41 40 39 39 39 38 39 39 41 40
53 57 54 51 52 51 50 48 48 47 45 46 49 49 50 50 52 52 52 51 49 47 46 46 46 46 45 45 43 43 43 41 39 39 38 38 37 37 37 37 37 36 36
54 55 57 51 50 50 50 50 50 49 47 47 51 49 48 50 50 50 50 48 48 48 47 47 45 45 45 44 44 44 44 41 39 39 38 37 37 36 36 36 36 36 36
51 50 51 52 50 51 51 51 50 51 51 50 49 49 46 52 52 52 52 51 51 51 50 48 46 45 45 44 43 42 41 40 39 39 38 37 36 36 35 35 35 36 36
49 49 49 49 50 52 51 52 52 51 52 52 52 51 48 49 50 51 52 51 50 49 48 48 47 46 46 46 45 43 42 41 40 40 38 37 36 35 35 34 35 36 39
50 50 50 49 48 48 48 49 51 51 51 50 50 51 49 50 51 52 51 52 51 50 50 49 48 48 47 47 46 44 44 43 41 41 40 38 36 36 35 34 35 36 38
50 50 49 49 50 49 49 49 49 50 52 51 51 50 50 50 49 50 52 52 51 50 50 50 50 50 49 48 46 45 43 40 43 40 39 39 38 37 36 36 35 36 38
51 50 50 49 50 52 51 51 52 53 52 51 50 48 49 50 50 50 50 50 51 51 51 51 51 50 49 49 48 44 37 36 39 37 38 37 35 34 33 33 34 35 36

GFSGL_sfc_temp_123.txt.gz
Temp
71 71 71 71 71 72 72 71 70 72 71 71 71 72 73 74 74 73 72 72 72 72 72 72 72 71 71 70 70 70 69 68 66 69 69 72 73 73 75 75 77 77 76
74 71 71 71 71 72 72 72 70 71 71 70 70 70 73 73 73 72 73 74 73 72 73 72 73 76 71 70 70 70 69 69 68 67 68 70 71 73 74 73 76 80 75
72 72 70 70 70 71 71 72 71 71 71 71 70 70 72 73 73 73 73 74 73 73 73 72 72 72 72 70 70 69 69 70 69 68 67 68 69 71 71 71 72 72 78
72 71 71 70 70 70 71 71 71 70 70 69 70 72 73 73 73 73 73 72 72 72 72 71 72 72 72 71 71 70 70 69 69 67 67 67 68 70 69 68 68 70 70
71 71 70 70 70 70 71 71 72 71 71 72 71 70 70 70 68 68 70 72 71 71 69 69 68 69 68 68 70 69 69 68 67 67 67 67 67 66 66 68 67 68 69
70 69 68 69 69 68 68 69 69 69 70 69 68 67 66 66 63 64 66 69 70 69 67 66 67 68 69 67 67 66 68 68 67 67 65 64 64 65 65 65 65 65 66
68 69 69 69 68 68 68 68 68 69 67 65 63 63 62 61 61 61 65 68 69 67 65 64 65 66 67 68 66 66 65 65 65 65 63 62 62 64 63 64 64 64 61
67 68 68 68 67 67 68 67 68 68 64 62 61 63 62 61 61 60 65 67 66 64 63 61 61 62 63 67 67 66 64 64 63 65 63 62 62 62 63 64 63 62 64
68 68 67 67 67 67 65 63 61 62 60 58 56 57 59 60 58 61 64 62 60 60 60 61 62 60 61 63 63 62 62 64 63 62 62 62 62 62 62 62 56 57 55
68 67 67 67 66 65 63 60 58 56 54 55 55 56 56 57 57 59 60 58 56 57 59 60 60 59 58 60 60 61 60 58 60 61 62 62 61 61 61 58 55 53 51
67 67 67 66 66 65 63 61 59 58 57 56 55 54 53 54 57 56 57 58 57 57 59 60 59 56 54 55 57 61 58 59 60 60 60 59 58 58 57 57 57 55 50
65 65 65 66 66 65 62 60 59 58 56 55 58 58 58 58 55 55 57 58 59 59 59 58 57 54 53 54 57 56 56 59 60 58 55 53 52 52 52 53 53 54 53
60 58 57 57 59 63 61 60 58 56 56 55 55 56 54 56 55 53 54 55 57 59 61 57 54 52 53 56 55 56 56 57 57 54 53 50 48 48 49 48 49 49 49
55 53 53 52 52 52 52 55 60 61 60 60 57 57 56 55 55 56 56 56 56 58 58 57 56 56 55 55 55 54 54 52 50 47 44 45 46 47 47 48 45 44 43
54 53 54 52 52 48 46 47 51 50 52 60 59 58 56 54 52 48 51 54 54 52 54 52 50 49 49 49 49 50 50 49 48 45 44 45 46 46 45 43 43 41 41
53 53 50 49 49 48 48 47 46 45 45 45 47 52 50 47 45 43 43 43 45 48 50 49 46 45 45 44 46 46 46 47 45 45 44 43 43 43 41 43 43 40 39
55 54 54 54 52 49 49 48 46 45 46 43 43 45 46 46 43 43 43 43 46 49 48 45 46 44 44 44 44 45 44 43 44 44 42 41 42 42 41 41 41 41 40
53 53 52 51 51 49 49 51 50 48 47 48 47 45 43 42 43 43 45 50 52 50 49 47 46 46 45 45 45 44 43 42 41 40 40 40 40 41 39 38 38 37 37
51 51 52 52 50 49 48 47 47 48 48 49 48 47 44 43 44 43 45 55 51 49 49 48 45 44 43 43 43 42 40 39 38 38 37 38 37 36 35 36 36 39 38
51 56 53 50 49 48 47 46 46 45 45 44 44 44 45 47 47 47 48 48 49 49 48 48 45 43 43 44 43 42 40 39 39 39 37 37 36 37 35 35 35 34 34
50 50 55 50 49 49 48 48 47 46 45 45 45 45 46 48 47 47 47 48 48 49 48 48 47 47 46 45 45 43 42 40 40 39 37 37 36 35 34 35 35 35 35
49 49 49 49 49 48 47 48 46 47 46 46 46 46 45 47 48 48 49 50 51 50 50 49 48 47 47 46 45 43 42 42 41 40 39 37 36 36 35 35 34 34 34
47 48 48 47 48 50 48 47 47 46 47 48 48 47 45 47 48 48 49 49 49 49 49 49 48 46 46 47 46 45 42 41 41 40 38 37 36 35 35 34 35 34 35
47 48 47 46 46 46 46 47 47 47 48 48 47 47 46 46 47 49 49 49 49 48 49 49 49 49 47 47 46 45 45 44 42 42 41 38 37 37 35 35 35 36 36
47 47 47 47 47 46 46 46 46 47 48 48 48 47 46 46 46 47 48 49 50 49 49 49 49 49 49 47 47 46 43 40 42 40 40 39 38 37 35 34 34 34 34
47 47 47 46 46 46 46 46 47 47 47 48 48 47 46 46 48 47 47 47 48 49 50 50 49 49 49 49 49 45 38 36 40 37 39 37 36 35 34 33 34 33 34

GFSGL_sfc_temp_129.txt.gz
Temp
82 82 83 83 83 82 82 83 83 83 82 82 82 83 83 83 84 83 83 84 83 83 84 84 84 84 87 88 87 87 85 85 83 89 88 88 86 84 86 88 88 87 81
83 81 82 82 83 83 82 83 82 82 83 83 83 82 83 82 82 82 83 85 82 83 84 83 83 87 83 84 86 82 84 84 84 80 84 87 84 84 84 83 88 90 85
82 82 82 82 81 82 82 83 83 81 81 83 81 80 80 82 82 83 83 83 84 84 84 83 84 83 82 86 82 82 86 85 84 78 83 86 86 86 84 82 83 83 87
82 82 81 81 82 83 82 82 82 81 81 82 82 82 81 82 82 83 83 82 83 84 83 83 83 83 82 82 81 81 81 79 80 78 83 84 84 83 85 82 79 82 82
80 80 80 81 81 82 81 80 81 80 80 80 81 81 81 83 84 82 82 81 82 82 83 82 82 79 70 73 79 80 79 78 77 83 78 83 83 83 81 83 80 79 76
78 79 80 80 80 79 80 80 80 80 80 80 80 80 81 81 66 67 74 79 81 80 79 79 77 73 72 67 66 66 69 78 78 76 82 80 77 79 81 82 82 81 78
74 78 78 77 75 79 79 79 78 78 79 78 79 79 79 79 63 64 66 79 79 79 78 73 74 75 74 75 67 67 66 65 68 72 70 72 74 73 76 77 76 76 74
71 74 75 75 75 78 77 78 78 78 75 77 76 76 74 73 62 62 65 76 75 75 75 74 73 69 71 72 76 75 72 72 73 75 72 71 72 74 76 78 74 69 71
71 72 72 72 69 69 69 70 70 71 70 72 73 72 72 70 61 60 63 71 69 67 69 69 74 71 62 64 72 71 69 68 62 60 60 60 60 61 65 80 78 76 76
68 71 70 71 68 70 66 65 63 62 63 64 64 62 59 66 59 58 62 69 66 60 62 62 60 63 59 61 69 71 69 69 71 70 70 67 66 65 62 68 74 74 74
71 69 71 69 68 65 63 60 59 58 58 59 57 56 58 57 60 57 57 62 61 57 59 58 56 55 54 56 62 70 68 68 65 68 68 68 68 68 68 66 65 69 69
72 71 69 66 64 62 60 58 58 59 57 55 56 56 56 58 55 55 57 57 58 58 56 55 53 52 52 54 57 55 56 60 61 60 64 62 59 60 64 62 61 60 61
61 60 63 65 63 62 59 58 56 55 56 60 64 62 61 60 60 53 54 55 56 58 59 54 51 50 51 52 54 56 59 65 67 67 65 62 61 60 62 62 61 60 60
59 58 57 56 55 55 57 59 57 55 52 54 56 62 62 63 63 64 61 58 56 56 56 53 55 55 54 54 54 57 59 60 60 62 62 63 64 65 63 64 64 65 64
54 54 53 54 52 49 46 49 51 49 53 56 57 58 58 62 59 50 54 57 58 54 54 55 54 53 52 53 55 56 58 64 62 63 63 62 62 63 62 63 63 63 61
53 52 51 51 51 50 49 47 45 45 45 45 45 53 52 47 45 44 44 46 47 50 57 56 54 54 55 55 55 56 57 60 61 61 62 63 61 61 60 60 61 60 58
56 54 52 52 55 52 51 50 47 46 45 43 43 45 44 44 43 42 42 46 46 53 61 58 56 53 54 55 58 59 58 60 59 61 60 60 60 58 59 59 58 60 58
64 55 59 56 56 55 56 53 55 54 55 51 47 46 43 43 42 43 44 49 56 56 58 54 52 52 53 54 54 55 57 58 59 58 59 58 56 59 59 58 58 58 58
66 66 65 64 63 60 59 59 59 57 53 52 51 48 47 42 42 43 47 63 62 61 62 62 60 58 56 56 55 54 55 59 58 58 57 57 57 58 56 57 54 48 51
65 59 62 66 64 64 63 63 62 61 61 61 60 59 57 56 59 58 60 63 65 62 64 63 62 62 60 58 56 55 56 55 55 56 55 55 55 55 53 53 54 55 54
69 66 61 67 66 65 65 65 64 63 61 61 62 60 49 63 64 64 64 64 64 64 64 63 61 60 59 58 58 58 57 57 57 55 54 54 54 53 54 54 53 54 52
70 69 68 69 65 63 65 65 65 65 64 64 64 61 45 62 65 65 64 65 66 65 65 63 62 62 61 59 58 58 57 56 56 56 55 55 54 54 54 55 56 57 57
69 68 67 67 67 60 63 65 65 64 65 65 65 64 63 64 65 65 65 66 65 64 64 63 62 62 62 62 62 61 58 58 59 58 56 56 55 56 57 57 57 57 57
68 68 67 67 65 67 67 67 67 58 66 66 66 66 66 66 67 66 67 67 66 66 65 65 64 64 62 63 62 63 63 62 62 60 60 59 58 52 58 57 58 56 57
68 67 67 67 66 66 66 67 67 67 67 67 67 67 68 67 67 67 68 67 67 66 65 66 66 65 63 62 64 64 55 44 58 53 60 59 58 56 58 58 57 58 55
68 67 67 67 66 66 66 67 67 67 67 67 67 68 68 68 68 68 68 67 67 67 67 67 66 65 65 65 64 55 37 38 49 41 60 60 59 58 58 56 55 57 56

GFSGL_sfc_temp_132.txt.gz
Temp
89 88 88 89 89 88 85 86 86 86 88 88 88 88 87 88 88 87 87 89 88 88 89 89 88 89 92 95 95 94 93 92 88 93 96 93 89 88 91 93 81 87 78
90 88 88 89 89 90 88 89 89 85 88 87 87 87 88 88 87 87 87 89 86 87 88 88 88 93 87 88 92 88 91 90 89 84 89 92 87 89 89 88 93 86 83
89 89 88 88 89 88 89 89 89 88 87 88 86 85 86 86 87 87 87 87 88 88 89 88 88 88 87 89 88 90 92 91 86 83 86 91 92 93 84 85 87 84 86
89 89 87 87 88 89 89 88 88 88 87 87 88 87 87 88 87 87 87 87 87 89 89 88 88 88 87 85 85 85 88 86 83 85 84 90 87 87 86 82 83 90 85
86 86 86 87 88 88 87 87 87 87 87 87 87 87 87 88 90 87 87 86 86 87 88 87 88 83 72 74 84 85 83 81 81 80 83 83 80 87 84 81 79 84 82
84 84 86 85 85 85 85 85 85 85 85 85 84 85 85 89 69 70 76 87 85 83 84 86 86 74 73 68 68 66 72 79 74 73 78 73 79 82 87 81 78 75 78
81 76 78 79 78 82 84 82 84 84 85 84 85 85 85 86 66 66 68 84 86 84 84 83 84 87 77 78 66 66 67 67 68 81 76 79 74 74 80 78 80 82 80
76 80 75 80 78 80 80 81 75 81 82 83 84 84 83 82 64 63 65 79 84 85 84 82 81 81 81 81 81 74 71 70 75 87 80 78 77 78 80 82 79 75 78
71 78 79 80 76 78 75 79 76 78 76 79 81 81 81 81 63 60 65 79 82 79 80 82 80 80 66 66 77 69 64 64 61 60 60 60 61 62 67 84 82 81 82
76 76 73 73 71 71 73 73 69 68 66 66 72 77 64 77 59 58 62 77 76 79 75 73 59 71 60 62 74 73 64 66 71 73 73 71 71 68 66 73 79 80 81
71 74 74 75 72 73 73 71 69 65 62 62 63 61 62 64 65 56 57 68 73 73 74 73 70 55 56 57 62 69 68 68 67 72 73 74 72 71 69 65 67 72 73
75 74 73 68 67 64 61 60 60 61 59 56 57 56 57 59 56 55 56 57 60 61 57 54 52 51 51 53 57 56 57 61 62 61 59 59 59 63 63 68 65 65 64
66 65 66 66 65 68 64 59 58 58 56 56 57 57 57 58 57 55 55 56 57 57 56 52 51 50 51 53 55 56 58 60 57 57 58 63 65 67 65 66 66 64 62
64 65 64 62 60 61 60 61 58 57 57 57 57 58 59 60 62 64 59 56 55 55 55 54 53 53 52 53 55 56 61 58 60 64 63 63 62 66 66 69 69 69 73
59 60 59 58 55 53 49 50 53 51 53 55 56 58 61 65 61 51 61 65 60 56 57 57 55 55 53 54 59 61 64 63 62 59 62 65 68 68 67 71 69 70 70
55 55 54 53 52 52 50 49 45 45 44 43 44 51 53 46 44 44 46 45 47 49 54 52 51 53 53 55 57 55 58 63 62 63 69 66 69 68 68 69 68 70 67
61 59 58 57 57 53 53 53 49 46 45 42 42 43 44 43 42 43 42 44 45 48 52 53 55 56 55 63 58 57 59 57 58 63 69 67 67 66 67 67 69 70 67
66 56 62 58 58 60 62 60 61 59 56 56 47 47 43 42 42 42 43 47 57 58 56 58 57 55 54 54 54 56 55 58 59 60 60 63 65 68 67 67 66 66 67
71 71 70 69 69 65 64 66 62 62 59 54 53 50 48 42 42 43 46 63 64 60 58 62 61 58 59 58 60 57 57 58 61 65 65 64 66 68 66 66 60 51 54
73 61 69 74 70 70 70 71 71 69 68 68 66 65 61 59 60 62 65 64 68 69 70 67 69 67 66 65 65 65 65 63 63 65 65 64 64 66 64 63 64 63 63
77 73 62 76 76 75 74 73 71 71 73 72 73 67 53 69 70 69 69 69 70 71 70 69 68 68 66 65 65 64 65 65 65 64 63 63 62 63 62 63 63 62 61
79 77 77 77 76 72 74 74 74 74 73 70 71 65 48 69 73 72 71 71 72 72 73 70 69 68 68 65 64 66 65 64 63 63 63 62 61 61 60 61 62 62 63
78 78 77 77 76 66 72 75 75 74 74 74 73 71 68 71 72 72 72 73 73 72 72 70 68 68 69 68 67 67 66 65 64 64 62 62 61 62 62 62 63 63 64
77 77 76 75 73 74 75 74 75 63 73 75 74 74 73 73 73 72 73 73 72 72 72 71 70 69 68 69 68 69 69 68 67 66 65 64 64 58 64 63 64 63 65
77 76 75 74 74 72 74 74 75 75 74 74 75 75 75 75 74 74 74 74 74 73 73 72 72 71 69 68 70 70 57 48 63 57 66 65 64 62 64 65 65 66 63
77 76 75 75 74 74 74 73 73 73 73 74 74 74 74 74 75 75 75 74 74 74 74 74 73 72 71 71 70 57 39 42 55 41 65 66 65 65 65 63 62 63 62